Location: Dead Woman Crossing
(43.5369°N, 106.3228°W)
Time: 19:50:34
(UTC+00:00)

deb Delta 126 - Pass Details

Date: 12 December 2022
Orbit: 1045 x 1647 km, 101.7° (Epoch: 03 February)

Event Time Altitude Azimuth Distance (km) Brightness Sun altitude
Exits shadow 00:20:57 10° 52° (NE) 2,948 ? -9.2°
Reaches altitude 10° 00:20:59 10° 53° (NE) 2,938 ? -9.2°
Maximum altitude 00:25:21 18° 95° (E) 2,454 ? -10.0°
Drops below altitude 10° 00:29:54 10° 136° (SE) 3,120 ? -10.7°
Sets 00:33:39 0° 154° (SSE) 4,186 ? -11.4°
